Regional Weather Roundup
Issued by NWS

Home | Current Version | Previous Version | Graphics & Text | Print | Product List | Glossary On
Versions: 1 2 3 4 5 6 7 8 9 10 11 12 13 14 15 16 17 18 19 20 21 22 23 24 25 26 27
000
ASUS45 KCYS 200010
RWRWY

WYOMING REGIONAL WEATHER ROUNDUP
NATIONAL WEATHER SERVICE CHEYENNE WY
600 PM MDT WED JUL 19 2017

NOTE:  "FAIR" INDICATES FEW OR NO CLOUDS BELOW 12,000 FEET
WITH NO SIGNIFICANT WEATHER AND/OR OBSTRUCTIONS TO VISIBILITY.

WYZ001-200100-
YELLOWSTONE NATIONAL PARK

CITY           SKY/WX    TMP DP  RH WIND       PRES   REMARKS
LK YELLOWSTONE   N/A     76  25  15 VRB6      30.31F
6HR MIN TEMP:  69; 6HR MAX TEMP:  80;

W YELLOWSTONE  NOT AVBL

$$
WYZ002>013-054>058-071-098>099-200100-
NORTHERN WYOMING

CITY           SKY/WX    TMP DP  RH WIND       PRES   REMARKS
JACKSON        SUNNY     86  30  13 SW14      30.18F
CODY           FAIR      81  48  31 NE8       30.08F
GREYBULL       FAIR      97  29   9 N7        29.95F HX  91
6HR MIN TEMP:  88; 6HR MAX TEMP:  98;

WORLAND        FAIR      95  42  16 NW6       29.96F HX  91
6HR MIN TEMP:  86; 6HR MAX TEMP:  96;

SHERIDAN       FAIR      90  47  22 SW8       30.03F
6HR MIN TEMP:  83; 6HR MAX TEMP:  92;

BUFFALO        FAIR      86  43  22 NW7       30.12F
6HR MIN TEMP:  78; 6HR MAX TEMP:  88;

GILLETTE       FAIR      88  48  25 NE13G21   30.05F
6HR MIN TEMP:  85; 6HR MAX TEMP:  92;

HULETT         FAIR      88  55  33 NE12G17   30.07R
NEWCASTLE      FAIR      93  39  15 N12       30.01R

$$
WYZ014>020-022>026-101>103-200100-
CENTRAL WYOMING

CITY           SKY/WX    TMP DP  RH WIND       PRES   REMARKS
BIG PINEY      PTSUNNY   83  42  23 VRB3      30.23S
6HR MIN TEMP:  77; 6HR MAX TEMP:  87;

PINEDALE       MOCLDY    77  48  36 SE6       30.24F
DUBOIS         FAIR      81  28  15 N10       30.23S
LANDER         FAIR      82  48  30 SW13      30.09F
6HR MIN TEMP:  75; 6HR MAX TEMP:  87; 6HR PCP: TRACE;

RIVERTON       FAIR      87  46  24 S10       30.07F
6HR MIN TEMP:  80; 6HR MAX TEMP:  90; 6HR PCP: TRACE;

CASPER         FAIR      92  45  19 NE15      30.08F
6HR MIN TEMP:  87; 6HR MAX TEMP:  94; 6HR PCP: TRACE;

DOUGLAS        FAIR      90  42  18 NE12      30.07R
6HR MIN TEMP:  90; 6HR MAX TEMP:  99;


$$
WYZ021-027>030-104>119-200100-
SOUTHERN WYOMING

CITY           SKY/WX    TMP DP  RH WIND       PRES   REMARKS
EVANSTON       CLOUDY    77  49  37 SW14      30.29R
6HR MIN TEMP:  73; 6HR MAX TEMP:  83;

KEMMERER         N/A     82  45  26 W14       30.27R
FORT BRIDGER   MOCLDY    81  40  22 W9        30.30R
ROCK SPRINGS   FAIR      83  40  21 W12       30.21S
6HR MIN TEMP:  83; 6HR MAX TEMP:  91;

DIXON          MOCLDY    72  55  55 N17       30.26
RAWLINS        PTSUNNY   82  35  18 W16G23    30.21R
6HR MIN TEMP:  81; 6HR MAX TEMP:  94; 6HR PCP: TRACE;

SARATOGA       MOCLDY    81  37  21 S33G45    30.24R
LARAMIE        LGT RAIN  66  56  70 E10       30.34R
6HR MIN TEMP:  66; 6HR MAX TEMP:  92; 6HR PCP:  0.06;

CHEYENNE       FAIR      86  46  24 E13G20    30.15R
6HR MIN TEMP:  86; 6HR MAX TEMP:  98; 6HR PCP: TRACE;

TORRINGTON     FAIR      98  42  14 NE18      29.94F HX  94
6HR MIN TEMP:  94; 6HR MAX TEMP: 105;

PINE BLUFFS    FAIR      91  43  18 E6        30.05F

$$




USA.gov is the U.S. government's official web portal to all federal, state and local government web resources and services.